Time,TemperatureF,DewpointF,PressureIn,WindDirection,WindDirectionDegrees,WindSpeedMPH,WindSpeedGustMPH,Humidity,HourlyPrecipIn,Conditions,Clouds,dailyrainin,SoftwareType,DateUTC
2013-01-18 00:00:00,33.1,17.4,29.38,WNW,293,1.6,2.5,52,0.00,,,0.00,WSDL version 342,2013-01-18 05:00:00,
2013-01-18 00:03:00,32.9,17.2,29.38,WNW,286,0.5,2.5,52,0.00,,,0.00,WSDL version 342,2013-01-18 05:03:00,
2013-01-18 00:05:00,32.9,17.2,29.38,NW,315,0.0,2.5,52,0.00,,,0.00,WSDL version 342,2013-01-18 05:05:00,
2013-01-18 00:07:00,32.9,17.2,29.38,NW,308,0.0,2.2,52,0.00,,,0.00,WSDL version 342,2013-01-18 05:07:00,
2013-01-18 00:12:00,32.7,17.0,29.38,WNW,293,0.0,1.1,52,0.00,,,0.00,WSDL version 342,2013-01-18 05:12:00,
2013-01-18 00:17:00,32.7,17.0,29.38,SSW,203,0.0,0.0,52,0.00,,,0.00,WSDL version 342,2013-01-18 05:17:00,
2013-01-18 00:22:00,32.6,17.0,29.38,WNW,293,2.4,2.9,52,0.00,,,0.00,WSDL version 342,2013-01-18 05:22:00,
2013-01-18 00:27:00,32.5,17.0,29.38,WSW,252,1.9,2.9,53,0.00,,,0.00,WSDL version 342,2013-01-18 05:27:00,
2013-01-18 00:32:00,32.5,17.4,29.38,WSW,248,0.5,2.7,54,-99.99,,,-99.99,WSDL version 342,2013-01-18 05:32:00,
2013-01-18 00:37:00,32.3,17.5,29.38,WNW,293,1.8,2.7,54,0.00,,,0.00,WSDL version 342,2013-01-18 05:37:00,
2013-01-18 00:42:00,32.2,17.4,29.38,WSW,250,0.1,2.7,54,-99.99,,,-99.99,WSDL version 342,2013-01-18 05:42:00,
2013-01-18 00:48:00,32.2,17.6,29.41,SSE,158,1.4,2.0,55,0.00,,,0.00,WSDL version 342,2013-01-18 05:48:00,
2013-01-18 00:53:00,32.2,17.4,29.41,South,177,0.0,2.0,54,0.00,,,0.00,WSDL version 342,2013-01-18 05:53:00,
2013-01-18 00:58:00,32.1,17.8,29.44,WNW,293,1.4,2.5,53,-99.99,,,-99.99,WSDL version 342,2013-01-18 05:58:00,
2013-01-18 01:03:00,32.0,18.5,29.44,WNW,293,0.8,2.7,53,-99.99,,,-99.99,WSDL version 342,2013-01-18 06:03:00,
2013-01-18 01:08:00,31.9,18.4,29.44,SE,135,0.0,2.7,53,0.00,,,0.00,WSDL version 342,2013-01-18 06:08:00,
2013-01-18 01:13:00,31.8,18.3,29.41,SSW,203,0.0,0.0,53,-99.99,,,-99.99,WSDL version 342,2013-01-18 06:13:00,
2013-01-18 01:19:00,31.7,18.2,29.41,West,280,0.2,1.6,53,0.00,,,0.00,WSDL version 342,2013-01-18 06:19:00,
2013-01-18 01:24:00,31.6,18.1,29.41,WNW,293,0.0,1.6,53,-99.99,,,-99.99,WSDL version 342,2013-01-18 06:24:00,
2013-01-18 01:29:00,31.5,18.0,29.44,WNW,293,1.7,2.2,53,0.00,,,0.00,WSDL version 342,2013-01-18 06:29:00,
2013-01-18 01:35:00,31.4,17.9,29.44,WNW,293,2.1,2.5,53,0.00,,,0.00,WSDL version 342,2013-01-18 06:35:00,
2013-01-18 01:41:00,31.2,18.2,29.44,WNW,293,0.0,2.5,54,0.00,,,0.00,WSDL version 342,2013-01-18 06:41:00,
2013-01-18 01:46:00,31.1,18.4,29.44,WNW,293,0.6,2.2,55,0.00,,,0.00,WSDL version 342,2013-01-18 06:46:00,
2013-01-18 01:51:00,31.1,18.4,29.44,WNW,293,0.0,2.2,55,0.00,,,0.00,WSDL version 342,2013-01-18 06:51:00,
2013-01-18 01:56:00,31.1,18.4,29.44,WSW,248,0.0,2.2,55,-99.99,,,-99.99,WSDL version 342,2013-01-18 06:56:00,
2013-01-18 02:01:00,31.1,18.4,29.44,SSW,194,0.3,2.0,55,0.00,,,0.00,WSDL version 342,2013-01-18 07:01:00,
2013-01-18 02:06:00,31.1,18.6,29.44,WSW,253,0.8,2.0,56,0.00,,,0.00,WSDL version 342,2013-01-18 07:06:00,
2013-01-18 02:11:00,31.1,18.8,29.44,WNW,293,2.8,3.4,56,0.00,,,0.00,WSDL version 342,2013-01-18 07:11:00,
2013-01-18 02:16:00,31.1,19.4,29.44,SW,215,0.4,3.4,58,0.00,,,0.00,WSDL version 342,2013-01-18 07:16:00,
2013-01-18 02:21:00,31.2,19.6,29.44,WSW,248,0.0,3.4,58,0.00,,,0.00,WSDL version 342,2013-01-18 07:21:00,
2013-01-18 02:26:00,31.3,19.7,29.44,WSW,248,0.0,1.6,58,0.00,,,0.00,WSDL version 342,2013-01-18 07:26:00,
2013-01-18 02:31:00,31.3,19.7,29.47,WSW,255,1.1,2.5,58,0.00,,,0.00,WSDL version 342,2013-01-18 07:31:00,
2013-01-18 02:36:00,31.5,19.9,29.47,WNW,293,0.7,2.5,58,0.00,,,0.00,WSDL version 342,2013-01-18 07:36:00,
2013-01-18 02:41:00,31.5,19.9,29.47,WNW,293,2.3,2.9,58,0.00,,,0.00,WSDL version 342,2013-01-18 07:41:00,
2013-01-18 02:48:00,31.5,20.9,29.47,West,267,2.4,4.3,62,0.00,,,0.00,WSDL version 342,2013-01-18 07:48:00,
2013-01-18 02:53:00,31.5,21.4,29.47,NW,315,1.9,4.3,62,0.00,,,0.00,WSDL version 342,2013-01-18 07:53:00,
2013-01-18 02:58:00,31.5,21.3,29.47,WNW,284,2.9,3.4,62,0.00,,,0.00,WSDL version 342,2013-01-18 07:58:00,
2013-01-18 03:03:00,31.5,20.7,29.47,NW,315,2.5,3.6,60,0.00,,,0.00,WSDL version 342,2013-01-18 08:03:00,
2013-01-18 03:08:00,31.5,19.6,29.47,WNW,287,2.4,3.6,57,0.00,,,0.00,WSDL version 342,2013-01-18 08:08:00,
2013-01-18 03:14:00,31.3,18.3,29.47,WNW,287,3.3,4.3,52,-99.99,,,-99.99,WSDL version 342,2013-01-18 08:14:00,
2013-01-18 03:19:00,31.2,16.6,29.47,NW,315,1.5,4.5,50,0.00,,,0.00,WSDL version 342,2013-01-18 08:19:00,
2013-01-18 03:24:00,30.9,16.3,29.47,NW,315,2.1,4.5,50,0.00,,,0.00,WSDL version 342,2013-01-18 08:24:00,
2013-01-18 03:29:00,30.5,15.8,29.47,WNW,289,1.7,3.8,49,0.00,,,0.00,WSDL version 342,2013-01-18 08:29:00,
2013-01-18 03:34:00,30.2,15.2,29.47,WNW,293,2.2,4.0,49,0.00,,,0.00,WSDL version 342,2013-01-18 08:34:00,
2013-01-18 03:39:00,30.0,15.0,29.47,WNW,293,2.1,4.0,49,0.00,,,0.00,WSDL version 342,2013-01-18 08:39:00,
2013-01-18 03:44:00,29.6,14.9,29.47,WNW,293,0.0,2.9,50,0.00,,,0.00,WSDL version 342,2013-01-18 08:44:00,
2013-01-18 03:49:00,29.4,14.8,29.47,West,278,1.3,2.5,50,0.00,,,0.00,WSDL version 342,2013-01-18 08:49:00,
2013-01-18 03:55:00,29.1,14.8,29.47,West,270,2.2,2.7,51,0.00,,,0.00,WSDL version 342,2013-01-18 08:55:00,
2013-01-18 04:00:00,29.3,15.2,29.47,West,270,1.3,2.7,51,0.00,,,0.00,WSDL version 342,2013-01-18 09:00:00,
2013-01-18 04:05:00,29.3,15.3,29.47,WSW,248,1.1,2.5,52,0.00,,,0.00,WSDL version 342,2013-01-18 09:05:00,
2013-01-18 04:10:00,29.3,15.6,29.47,West,270,0.3,1.6,52,0.00,,,0.00,WSDL version 342,2013-01-18 09:10:00,
2013-01-18 04:15:00,29.5,15.9,29.50,West,270,1.3,2.5,53,0.00,,,0.00,WSDL version 342,2013-01-18 09:15:00,
2013-01-18 04:20:00,29.5,16.1,29.50,WNW,293,1.8,2.9,53,-99.99,,,-99.99,WSDL version 342,2013-01-18 09:20:00,
2013-01-18 04:25:00,29.7,16.6,29.50,WNW,293,1.8,3.8,54,0.00,,,0.00,WSDL version 342,2013-01-18 09:25:00,
2013-01-18 04:30:00,29.8,16.8,29.50,WNW,290,1.8,3.8,54,0.00,,,0.00,WSDL version 342,2013-01-18 09:30:00,
2013-01-18 04:35:00,29.9,16.9,29.50,NW,318,1.6,3.6,54,0.00,,,0.00,WSDL version 342,2013-01-18 09:35:00,
2013-01-18 04:40:00,30.0,17.0,29.50,NW,315,2.3,3.1,54,0.00,,,0.00,WSDL version 342,2013-01-18 09:40:00,
2013-01-18 04:45:00,30.0,16.9,29.50,WNW,286,2.6,4.3,53,0.00,,,0.00,WSDL version 342,2013-01-18 09:45:00,
2013-01-18 04:50:00,30.0,16.6,29.50,WNW,293,2.7,4.3,53,0.00,,,0.00,WSDL version 342,2013-01-18 09:50:00,
2013-01-18 04:55:00,30.2,16.4,29.50,WNW,295,2.6,4.3,52,0.00,,,0.00,WSDL version 342,2013-01-18 09:55:00,
2013-01-18 05:00:00,30.2,16.3,29.53,West,280,3.1,4.3,51,0.00,,,0.00,WSDL version 342,2013-01-18 10:00:00,
2013-01-18 05:05:00,30.2,16.0,29.53,NW,326,2.3,4.3,51,0.00,,,0.00,WSDL version 342,2013-01-18 10:05:00,
2013-01-18 05:10:00,30.2,15.9,29.53,West,278,4.5,5.6,50,0.00,,,0.00,WSDL version 342,2013-01-18 10:10:00,
2013-01-18 05:15:00,30.0,15.4,29.53,WNW,293,3.2,6.5,50,0.00,,,0.00,WSDL version 342,2013-01-18 10:15:00,
2013-01-18 05:20:00,30.0,15.8,29.53,WNW,284,3.2,6.5,51,-99.99,,,-99.99,WSDL version 342,2013-01-18 10:20:00,
2013-01-18 05:25:00,29.9,15.3,29.53,West,280,2.8,5.8,50,0.00,,,0.00,WSDL version 342,2013-01-18 10:25:00,
2013-01-18 05:30:00,29.8,15.7,29.56,WNW,293,3.2,5.8,51,0.00,,,0.00,WSDL version 342,2013-01-18 10:30:00,
2013-01-18 05:35:00,29.8,15.8,29.56,West,276,3.6,4.7,51,0.00,,,0.00,WSDL version 342,2013-01-18 10:35:00,
2013-01-18 05:41:00,29.8,15.6,29.56,West,280,4.3,6.5,50,0.00,,,0.00,WSDL version 342,2013-01-18 10:41:00,
2013-01-18 05:47:00,29.6,13.3,29.56,WNW,293,5.7,10.5,43,0.00,,,0.00,WSDL version 342,2013-01-18 10:47:00,
2013-01-18 05:53:00,29.1,9.6,29.56,WNW,283,4.8,11.9,40,0.00,,,0.00,WSDL version 342,2013-01-18 10:53:00,
2013-01-18 05:58:00,28.8,9.1,29.59,WNW,296,6.0,11.9,39,0.00,,,0.00,WSDL version 342,2013-01-18 10:58:00,
2013-01-18 06:04:00,28.5,9.5,29.59,WNW,290,5.5,10.1,39,0.00,,,0.00,WSDL version 342,2013-01-18 11:04:00,
2013-01-18 06:09:00,28.1,8.4,29.59,WNW,298,5.1,8.5,39,0.00,,,0.00,WSDL version 342,2013-01-18 11:09:00,
2013-01-18 06:14:00,27.8,8.3,29.62,West,280,6.4,10.7,38,0.00,,,0.00,WSDL version 342,2013-01-18 11:14:00,
2013-01-18 06:19:00,27.4,7.1,29.62,West,281,5.2,10.7,37,0.00,,,0.00,WSDL version 342,2013-01-18 11:19:00,
2013-01-18 06:24:00,27.1,6.2,29.62,WNW,293,4.5,7.4,37,0.00,,,0.00,WSDL version 342,2013-01-18 11:24:00,
2013-01-18 06:29:00,26.8,5.7,29.59,WNW,296,6.9,12.5,35,0.00,,,0.00,WSDL version 342,2013-01-18 11:29:00,
2013-01-18 06:34:00,26.5,6.4,29.59,WNW,284,3.8,12.5,38,-99.99,,,-99.99,WSDL version 342,2013-01-18 11:34:00,
2013-01-18 06:39:00,26.1,6.4,29.59,WNW,298,5.6,13.0,38,0.00,,,0.00,WSDL version 342,2013-01-18 11:39:00,
2013-01-18 06:44:00,26.1,5.5,29.65,West,274,6.6,13.0,36,0.00,,,0.00,WSDL version 342,2013-01-18 11:44:00,
2013-01-18 06:49:00,26.0,4.4,29.65,West,280,7.0,11.0,34,0.00,,,0.00,WSDL version 342,2013-01-18 11:49:00,
2013-01-18 06:56:00,25.6,3.4,29.65,WNW,290,6.0,11.0,33,0.00,,,0.00,WSDL version 342,2013-01-18 11:56:00,
2013-01-18 07:01:00,25.3,3.1,29.68,WNW,293,5.8,11.9,34,0.00,,,0.00,WSDL version 342,2013-01-18 12:01:00,
2013-01-18 07:06:00,25.2,2.7,29.68,NW,307,6.6,12.3,33,0.00,,,0.00,WSDL version 342,2013-01-18 12:06:00,
2013-01-18 07:11:00,24.9,2.6,29.68,West,278,6.0,12.3,34,0.00,,,0.00,WSDL version 342,2013-01-18 12:11:00,
2013-01-18 07:16:00,24.8,2.7,29.68,WNW,293,6.0,10.5,34,-99.99,,,-99.99,WSDL version 342,2013-01-18 12:16:00,
2013-01-18 07:22:00,24.7,2.5,29.68,WNW,293,4.9,12.5,34,-99.99,,,-99.99,WSDL version 342,2013-01-18 12:22:00,
2013-01-18 07:27:00,24.4,3.0,29.68,WNW,301,5.1,12.5,35,0.00,,,0.00,WSDL version 342,2013-01-18 12:27:00,
2013-01-18 07:32:00,24.3,2.3,29.68,WNW,296,5.8,8.5,34,0.00,,,0.00,WSDL version 342,2013-01-18 12:32:00,
2013-01-18 07:37:00,24.2,2.2,29.68,WNW,295,5.9,10.5,33,0.00,,,0.00,WSDL version 342,2013-01-18 12:37:00,
2013-01-18 07:42:00,24.1,1.7,29.68,WNW,302,4.6,10.5,33,0.00,,,0.00,WSDL version 342,2013-01-18 12:42:00,
2013-01-18 07:47:00,24.1,1.6,29.74,WNW,285,6.4,8.5,33,0.00,,,0.00,WSDL version 342,2013-01-18 12:47:00,
2013-01-18 07:52:00,24.1,1.7,29.74,WNW,299,4.6,10.1,33,0.00,,,0.00,WSDL version 342,2013-01-18 12:52:00,
2013-01-18 07:57:00,24.1,1.6,29.74,WNW,286,6.4,12.1,32,-99.99,,,-99.99,WSDL version 342,2013-01-18 12:57:00,
2013-01-18 08:02:00,24.3,1.3,29.74,West,276,6.6,12.1,32,0.00,,,0.00,WSDL version 342,2013-01-18 13:02:00,
2013-01-18 08:07:00,24.4,1.4,29.74,NW,309,5.2,12.1,32,0.00,,,0.00,WSDL version 342,2013-01-18 13:07:00,
2013-01-18 08:12:00,24.4,1.4,29.74,WNW,289,7.5,9.8,32,0.00,,,0.00,WSDL version 342,2013-01-18 13:12:00,
2013-01-18 08:17:00,24.1,1.1,29.74,WNW,295,6.3,9.8,32,0.00,,,0.00,WSDL version 342,2013-01-18 13:17:00,
2013-01-18 08:22:00,24.1,1.1,29.74,West,280,6.6,9.6,32,0.00,,,0.00,WSDL version 342,2013-01-18 13:22:00,
2013-01-18 08:27:00,24.0,0.3,29.77,West,278,7.1,12.3,29,0.00,,,0.00,WSDL version 342,2013-01-18 13:27:00,
2013-01-18 08:32:00,23.9,0.0,29.77,WNW,302,5.6,12.3,29,0.00,,,0.00,WSDL version 342,2013-01-18 13:32:00,
2013-01-18 08:37:00,24.0,-0.8,29.77,WNW,287,6.8,10.3,29,0.00,,,0.00,WSDL version 342,2013-01-18 13:37:00,
2013-01-18 08:42:00,24.1,0.2,29.77,West,279,5.5,10.3,32,0.00,,,0.00,WSDL version 342,2013-01-18 13:42:00,
2013-01-18 08:47:00,24.2,-0.2,29.77,NW,312,5.4,8.7,29,0.00,,,0.00,WSDL version 342,2013-01-18 13:47:00,
2013-01-18 08:52:00,24.4,-0.9,29.77,WNW,302,6.9,13.0,29,0.00,,,0.00,WSDL version 342,2013-01-18 13:52:00,
2013-01-18 08:57:00,24.4,-0.8,29.80,WNW,302,7.5,13.0,27,0.00,,,0.00,WSDL version 342,2013-01-18 13:57:00,
2013-01-18 09:02:00,24.7,-1.6,29.80,WNW,285,6.9,10.5,27,0.00,,,0.00,WSDL version 342,2013-01-18 14:02:00,
2013-01-18 09:07:00,25.1,-1.7,29.80,West,276,4.4,10.3,26,-99.99,,,-99.99,WSDL version 342,2013-01-18 14:07:00,
2013-01-18 09:12:00,25.7,-1.4,29.80,West,273,6.5,12.3,26,0.00,,,0.00,WSDL version 342,2013-01-18 14:12:00,
2013-01-18 09:17:00,25.8,-1.6,29.80,WNW,286,7.5,12.8,25,0.00,,,0.00,WSDL version 342,2013-01-18 14:17:00,
2013-01-18 09:22:00,25.9,-1.6,29.80,NW,307,8.4,12.8,24,0.00,,,0.00,WSDL version 342,2013-01-18 14:22:00,
2013-01-18 09:28:00,25.8,-2.8,29.80,WNW,296,7.4,17.0,24,0.00,,,0.00,WSDL version 342,2013-01-18 14:28:00,
2013-01-18 09:33:00,25.9,-2.0,29.80,WNW,296,8.0,17.0,26,0.00,,,0.00,WSDL version 342,2013-01-18 14:33:00,
2013-01-18 09:38:00,25.6,-2.6,29.80,NW,304,6.4,14.1,26,0.00,,,0.00,WSDL version 342,2013-01-18 14:38:00,
2013-01-18 09:43:00,25.6,-2.1,29.83,WNW,298,8.3,12.8,24,0.00,,,0.00,WSDL version 342,2013-01-18 14:43:00,
2013-01-18 09:48:00,25.0,-2.8,29.83,West,259,6.7,16.8,24,0.00,,,0.00,WSDL version 342,2013-01-18 14:48:00,
2013-01-18 09:53:00,24.8,-2.8,29.83,WNW,288,8.6,16.8,24,0.00,,,0.00,WSDL version 342,2013-01-18 14:53:00,
2013-01-18 09:58:00,25.2,-2.2,29.83,West,270,6.9,14.8,26,0.00,,,0.00,WSDL version 342,2013-01-18 14:58:00,
2013-01-18 10:03:00,25.3,-2.5,29.83,West,279,8.5,14.8,24,0.00,,,0.00,WSDL version 342,2013-01-18 15:03:00,
2013-01-18 10:08:00,25.7,-1.3,29.83,NW,308,7.9,13.0,26,0.00,,,0.00,WSDL version 342,2013-01-18 15:08:00,
2013-01-18 10:13:00,25.8,-1.8,29.83,West,273,7.2,14.3,26,0.00,,,0.00,WSDL version 342,2013-01-18 15:13:00,
2013-01-18 10:18:00,26.0,-1.9,29.83,WNW,286,5.6,16.6,26,0.00,,,0.00,WSDL version 342,2013-01-18 15:18:00,
2013-01-18 10:23:00,26.5,-0.7,29.83,WNW,296,7.3,16.6,26,0.00,,,0.00,WSDL version 342,2013-01-18 15:23:00,
2013-01-18 10:28:00,26.6,-0.6,29.83,WNW,289,5.8,13.4,26,0.00,,,0.00,WSDL version 342,2013-01-18 15:28:00,
2013-01-18 10:33:00,26.5,-0.7,29.83,WNW,301,5.3,10.3,26,0.00,,,0.00,WSDL version 342,2013-01-18 15:33:00,
2013-01-18 10:38:00,26.1,-1.1,29.83,WNW,286,5.2,9.2,26,-99.99,,,-99.99,WSDL version 342,2013-01-18 15:38:00,
2013-01-18 10:43:00,26.6,-0.5,29.83,WNW,285,7.0,9.6,26,0.00,,,0.00,WSDL version 342,2013-01-18 15:43:00,
2013-01-18 10:48:00,27.1,-1.9,29.83,WNW,290,5.9,13.0,23,0.00,,,0.00,WSDL version 342,2013-01-18 15:48:00,
2013-01-18 10:53:00,27.7,-2.0,29.83,West,276,6.7,13.0,23,0.00,,,0.00,WSDL version 342,2013-01-18 15:53:00,
2013-01-18 10:58:00,27.8,-1.9,29.83,WNW,283,6.9,10.7,23,0.00,,,0.00,WSDL version 342,2013-01-18 15:58:00,
2013-01-18 11:03:00,28.0,-1.7,29.83,West,267,5.3,10.7,23,-99.99,,,-99.99,WSDL version 342,2013-01-18 16:03:00,
2013-01-18 11:08:00,28.5,-1.2,29.83,WNW,293,5.1,10.3,23,0.00,,,0.00,WSDL version 342,2013-01-18 16:08:00,
2013-01-18 11:13:00,29.0,-0.8,29.83,WNW,293,6.7,10.3,23,0.00,,,0.00,WSDL version 342,2013-01-18 16:13:00,
2013-01-18 11:18:00,29.8,-0.1,29.83,West,280,5.6,8.5,23,0.00,,,0.00,WSDL version 342,2013-01-18 16:18:00,
2013-01-18 11:23:00,30.0,0.1,29.83,West,281,6.5,8.5,23,0.00,,,0.00,WSDL version 342,2013-01-18 16:23:00,
2013-01-18 11:28:00,29.1,-0.7,29.83,WNW,286,8.0,12.5,23,-99.99,,,-99.99,WSDL version 342,2013-01-18 16:28:00,
2013-01-18 11:33:00,28.7,-1.1,29.83,West,262,7.7,12.5,23,0.00,,,0.00,WSDL version 342,2013-01-18 16:33:00,
2013-01-18 11:38:00,28.9,-0.8,29.83,West,273,7.7,12.3,23,0.00,,,0.00,WSDL version 342,2013-01-18 16:38:00,
2013-01-18 11:43:00,28.8,-1.0,29.83,West,270,7.2,12.3,23,0.00,,,0.00,WSDL version 342,2013-01-18 16:43:00,
2013-01-18 11:48:00,29.7,-0.2,29.83,WNW,293,5.3,10.1,23,0.00,,,0.00,WSDL version 342,2013-01-18 16:48:00,
2013-01-18 11:53:00,29.2,-0.6,29.83,West,259,8.0,10.5,23,0.00,,,0.00,WSDL version 342,2013-01-18 16:53:00,
2013-01-18 11:58:00,29.4,-0.4,29.83,NW,307,5.7,12.5,23,0.00,,,0.00,WSDL version 342,2013-01-18 16:58:00,
2013-01-18 12:03:00,30.0,0.1,29.83,WNW,289,7.3,12.5,23,-99.99,,,-99.99,WSDL version 342,2013-01-18 17:03:00,
2013-01-18 12:08:00,29.4,-0.4,29.83,WNW,295,5.6,11.0,23,0.00,,,0.00,WSDL version 342,2013-01-18 17:08:00,
2013-01-18 12:13:00,28.5,-1.2,29.83,NW,308,5.2,8.5,23,0.00,,,0.00,WSDL version 342,2013-01-18 17:13:00,
2013-01-18 12:18:00,28.1,-1.6,29.83,WNW,295,6.4,10.1,23,0.00,,,0.00,WSDL version 342,2013-01-18 17:18:00,
2013-01-18 12:23:00,29.1,-0.7,29.83,WSW,244,4.6,11.0,23,0.00,,,0.00,WSDL version 342,2013-01-18 17:23:00,
2013-01-18 12:28:00,29.9,0.0,29.83,WNW,296,6.2,11.0,23,0.00,,,0.00,WSDL version 342,2013-01-18 17:28:00,
2013-01-18 12:33:00,30.4,0.4,29.83,West,262,4.8,9.8,23,0.00,,,0.00,WSDL version 342,2013-01-18 17:33:00,
2013-01-18 12:38:00,31.0,0.9,29.83,West,276,6.0,9.8,23,0.00,,,0.00,WSDL version 342,2013-01-18 17:38:00,
2013-01-18 12:43:00,32.1,-0.4,29.80,West,278,3.8,8.5,23,0.00,,,0.00,WSDL version 342,2013-01-18 17:43:00,
2013-01-18 12:48:00,31.5,1.4,29.80,West,267,6.4,8.9,23,0.00,,,0.00,WSDL version 342,2013-01-18 17:48:00,
2013-01-18 12:53:00,31.1,1.1,29.80,West,267,6.6,9.8,23,0.00,,,0.00,WSDL version 342,2013-01-18 17:53:00,
2013-01-18 12:58:00,31.2,1.2,29.80,West,270,5.5,9.8,23,0.00,,,0.00,WSDL version 342,2013-01-18 17:58:00,
2013-01-18 13:03:00,31.2,1.2,29.80,West,281,6.0,9.6,23,0.00,,,0.00,WSDL version 342,2013-01-18 18:03:00,
2013-01-18 13:08:00,31.6,0.1,29.80,NW,307,4.5,8.1,23,0.00,,,0.00,WSDL version 342,2013-01-18 18:08:00,
2013-01-18 13:14:00,32.0,0.1,29.83,WSW,244,6.4,10.7,23,-99.99,,,-99.99,WSDL version 342,2013-01-18 18:14:00,
2013-01-18 13:19:00,31.4,1.3,29.83,West,280,7.0,10.7,23,0.00,,,0.00,WSDL version 342,2013-01-18 18:19:00,
2013-01-18 13:24:00,31.8,0.8,29.83,NW,315,5.5,10.1,23,0.00,,,0.00,WSDL version 342,2013-01-18 18:24:00,
2013-01-18 13:29:00,31.9,0.0,29.83,West,276,5.4,8.7,23,0.00,,,0.00,WSDL version 342,2013-01-18 18:29:00,
2013-01-18 13:34:00,32.0,1.8,29.83,WSW,251,5.1,7.8,23,0.00,,,0.00,WSDL version 342,2013-01-18 18:34:00,
2013-01-18 13:39:00,31.4,1.3,29.83,WSW,241,6.8,10.3,23,0.00,,,0.00,WSDL version 342,2013-01-18 18:39:00,
2013-01-18 13:44:00,30.9,0.9,29.83,WNW,293,4.8,10.3,23,0.00,,,0.00,WSDL version 342,2013-01-18 18:44:00,
2013-01-18 13:49:00,31.2,1.2,29.83,West,281,5.6,10.7,23,0.00,,,0.00,WSDL version 342,2013-01-18 18:49:00,
2013-01-18 13:54:00,31.9,0.0,29.83,WNW,300,3.3,10.7,23,0.00,,,0.00,WSDL version 342,2013-01-18 18:54:00,
2013-01-18 13:59:00,32.4,-0.4,29.83,West,276,4.3,6.5,23,0.00,,,0.00,WSDL version 342,2013-01-18 18:59:00,
2013-01-18 14:04:00,32.0,0.1,29.83,West,260,3.8,7.4,23,0.00,,,0.00,WSDL version 342,2013-01-18 19:04:00,
2013-01-18 14:09:00,31.5,1.4,29.83,West,264,6.2,7.8,23,0.00,,,0.00,WSDL version 342,2013-01-18 19:09:00,
2013-01-18 14:14:00,31.3,1.2,29.83,NW,305,4.2,7.8,23,0.00,,,0.00,WSDL version 342,2013-01-18 19:14:00,
2013-01-18 14:19:00,31.1,1.1,29.83,WNW,289,3.7,8.1,23,0.00,,,0.00,WSDL version 342,2013-01-18 19:19:00,
2013-01-18 14:24:00,30.7,0.7,29.83,West,273,5.4,8.1,23,0.00,,,0.00,WSDL version 342,2013-01-18 19:24:00,
2013-01-18 14:29:00,30.3,0.4,29.83,West,273,6.8,7.8,23,0.00,,,0.00,WSDL version 342,2013-01-18 19:29:00,
2013-01-18 14:34:00,30.3,0.3,29.83,WNW,293,4.6,7.8,23,0.00,,,0.00,WSDL version 342,2013-01-18 19:34:00,
2013-01-18 14:39:00,30.8,0.8,29.83,WSW,254,3.8,7.2,23,0.00,,,0.00,WSDL version 342,2013-01-18 19:39:00,
2013-01-18 14:44:00,30.7,0.7,29.83,WSW,251,3.9,7.4,23,0.00,,,0.00,WSDL version 342,2013-01-18 19:44:00,
2013-01-18 14:49:00,30.9,0.9,29.83,NW,307,3.9,7.4,23,0.00,,,0.00,WSDL version 342,2013-01-18 19:49:00,
2013-01-18 14:54:00,30.7,0.7,29.83,SW,231,3.1,6.3,23,0.00,,,0.00,WSDL version 342,2013-01-18 19:54:00,
2013-01-18 14:59:00,30.8,0.8,29.83,West,276,3.4,5.6,23,0.00,,,0.00,WSDL version 342,2013-01-18 19:59:00,
2013-01-18 15:04:00,30.7,0.7,29.83,SSW,212,3.4,6.0,23,0.00,,,0.00,WSDL version 342,2013-01-18 20:04:00,
2013-01-18 15:09:00,30.4,0.4,29.83,WSW,242,4.1,6.0,23,0.00,,,0.00,WSDL version 342,2013-01-18 20:09:00,
2013-01-18 15:16:00,30.1,0.2,29.83,WSW,241,2.9,6.3,23,-99.99,,,-99.99,WSDL version 342,2013-01-18 20:16:00,
2013-01-18 15:21:00,30.2,0.2,29.83,West,276,4.0,6.5,23,0.00,,,0.00,WSDL version 342,2013-01-18 20:21:00,
2013-01-18 15:26:00,30.0,0.1,29.83,West,260,4.6,6.5,23,0.00,,,0.00,WSDL version 342,2013-01-18 20:26:00,
2013-01-18 15:31:00,29.5,-0.3,29.83,WNW,296,4.2,7.4,23,0.00,,,0.00,WSDL version 342,2013-01-18 20:31:00,
2013-01-18 15:37:00,29.2,-0.6,29.83,West,260,4.0,6.9,23,0.00,,,0.00,WSDL version 342,2013-01-18 20:37:00,
2013-01-18 15:42:00,29.2,-0.6,29.83,WNW,301,2.6,6.9,23,0.00,,,0.00,WSDL version 342,2013-01-18 20:42:00,
2013-01-18 15:47:00,29.2,-0.6,29.83,West,262,2.7,5.8,23,0.00,,,0.00,WSDL version 342,2013-01-18 20:47:00,
2013-01-18 15:52:00,29.5,-0.4,29.83,West,264,2.2,4.3,23,0.00,,,0.00,WSDL version 342,2013-01-18 20:52:00,
2013-01-18 15:57:00,29.6,-0.2,29.83,WNW,283,0.8,4.7,23,0.00,,,0.00,WSDL version 342,2013-01-18 20:57:00,
2013-01-18 16:02:00,29.3,-0.6,29.83,West,264,3.9,7.4,23,0.00,,,0.00,WSDL version 342,2013-01-18 21:02:00,
2013-01-18 16:07:00,29.1,-0.7,29.83,WSW,238,3.4,7.4,23,0.00,,,0.00,WSDL version 342,2013-01-18 21:07:00,
2013-01-18 16:12:00,29.1,-0.7,29.83,West,273,3.2,7.6,23,0.00,,,0.00,WSDL version 342,2013-01-18 21:12:00,
2013-01-18 16:17:00,28.6,-1.1,29.83,WSW,251,4.0,7.6,23,0.00,,,0.00,WSDL version 342,2013-01-18 21:17:00,
2013-01-18 16:22:00,28.5,-1.3,29.83,West,274,2.1,6.3,23,0.00,,,0.00,WSDL version 342,2013-01-18 21:22:00,
2013-01-18 16:27:00,27.9,-1.8,29.83,West,276,2.1,4.3,23,0.00,,,0.00,WSDL version 342,2013-01-18 21:27:00,
2013-01-18 16:32:00,27.6,-2.0,29.85,West,259,2.4,4.9,23,0.00,,,0.00,WSDL version 342,2013-01-18 21:32:00,
2013-01-18 16:37:00,27.5,-2.1,29.85,SSE,150,1.2,4.9,23,0.00,,,0.00,WSDL version 342,2013-01-18 21:37:00,
2013-01-18 16:43:00,27.2,-2.4,29.85,South,174,2.3,7.8,23,0.00,,,0.00,WSDL version 342,2013-01-18 21:43:00,
2013-01-18 16:48:00,27.0,-2.6,29.85,SW,217,2.3,7.8,23,0.00,,,0.00,WSDL version 342,2013-01-18 21:48:00,
2013-01-18 16:53:00,26.8,-2.7,29.85,SW,225,3.4,6.3,23,0.00,,,0.00,WSDL version 342,2013-01-18 21:53:00,
2013-01-18 16:58:00,26.5,-2.2,29.85,WSW,241,2.2,4.3,24,0.00,,,0.00,WSDL version 342,2013-01-18 21:58:00,
2013-01-18 17:03:00,26.2,-2.5,29.85,SSW,199,3.1,5.8,24,0.00,,,0.00,WSDL version 342,2013-01-18 22:03:00,
2013-01-18 17:08:00,26.1,-2.6,29.85,SW,231,3.5,5.8,24,0.00,,,0.00,WSDL version 342,2013-01-18 22:08:00,
2013-01-18 17:13:00,25.9,-2.7,29.85,West,263,1.6,5.4,24,0.00,,,0.00,WSDL version 342,2013-01-18 22:13:00,
2013-01-18 17:18:00,25.7,-2.9,29.85,West,280,2.0,3.4,24,0.00,,,0.00,WSDL version 342,2013-01-18 22:18:00,
2013-01-18 17:23:00,25.3,-3.2,29.85,WNW,286,2.7,3.8,24,0.00,,,0.00,WSDL version 342,2013-01-18 22:23:00,
2013-01-18 17:28:00,25.1,-3.4,29.85,West,264,0.0,3.8,24,0.00,,,0.00,WSDL version 342,2013-01-18 22:28:00,
2013-01-18 17:33:00,24.8,-3.7,29.85,South,186,0.1,2.7,24,0.00,,,0.00,WSDL version 342,2013-01-18 22:33:00,
2013-01-18 17:38:00,24.6,-3.9,29.85,South,170,0.0,2.7,24,0.00,,,0.00,WSDL version 342,2013-01-18 22:38:00,
2013-01-18 17:43:00,24.4,-4.0,29.85,SSE,158,0.2,2.5,24,0.00,,,0.00,WSDL version 342,2013-01-18 22:43:00,
2013-01-18 17:48:00,24.2,-4.2,29.85,WSW,255,0.3,1.6,24,0.00,,,0.00,WSDL version 342,2013-01-18 22:48:00,
2013-01-18 17:53:00,23.8,-4.6,29.85,West,270,0.0,0.0,24,0.00,,,0.00,WSDL version 342,2013-01-18 22:53:00,
2013-01-18 17:59:00,23.5,-4.8,29.85,SSE,158,0.0,0.0,24,0.00,,,0.00,WSDL version 342,2013-01-18 22:59:00,
2013-01-18 18:04:00,23.5,-4.8,29.85,ESE,113,0.0,0.0,24,-99.99,,,-99.99,WSDL version 342,2013-01-18 23:04:00,
2013-01-18 18:09:00,23.5,-4.9,29.85,ESE,113,0.0,0.0,24,-99.99,,,-99.99,WSDL version 342,2013-01-18 23:09:00,
2013-01-18 18:14:00,23.2,-5.1,29.85,East,87,0.0,0.0,24,0.00,,,0.00,WSDL version 342,2013-01-18 23:14:00,
2013-01-18 18:19:00,23.2,-5.1,29.85,NE,45,0.0,0.0,24,0.00,,,0.00,WSDL version 342,2013-01-18 23:19:00,
2013-01-18 18:24:00,22.9,-4.6,29.85,ESE,113,0.0,1.6,25,0.00,,,0.00,WSDL version 342,2013-01-18 23:24:00,
2013-01-18 18:29:00,22.9,-3.2,29.85,ESE,113,0.5,1.6,27,-99.99,,,-99.99,WSDL version 342,2013-01-18 23:29:00,
2013-01-18 18:34:00,23.0,-3.1,29.85,ESE,113,0.0,2.5,27,-99.99,,,-99.99,WSDL version 342,2013-01-18 23:34:00,
2013-01-18 18:39:00,23.2,-2.9,29.85,South,180,0.0,2.5,27,0.00,,,0.00,WSDL version 342,2013-01-18 23:39:00,
2013-01-18 18:44:00,23.3,-2.8,29.85,SSW,197,0.0,0.9,27,0.00,,,0.00,WSDL version 342,2013-01-18 23:44:00,
2013-01-18 18:49:00,23.4,-2.8,29.85,SE,124,0.0,1.3,27,0.00,,,0.00,WSDL version 342,2013-01-18 23:49:00,
2013-01-18 18:54:00,23.5,-2.6,29.85,ESE,115,0.0,1.3,27,0.00,,,0.00,WSDL version 342,2013-01-18 23:54:00,
2013-01-18 18:59:00,23.5,-2.6,29.85,ESE,117,0.0,0.0,27,0.00,,,0.00,WSDL version 342,2013-01-18 23:59:00,
2013-01-18 19:04:00,23.7,-2.5,29.85,SE,129,0.0,0.0,27,0.00,,,0.00,WSDL version 342,2013-01-19 00:04:00,
2013-01-18 19:09:00,23.8,-2.4,29.85,SE,145,1.1,2.9,27,0.00,,,0.00,WSDL version 342,2013-01-19 00:09:00,
2013-01-18 19:14:00,23.9,-2.3,29.85,SE,138,1.3,3.1,27,0.00,,,0.00,WSDL version 342,2013-01-19 00:14:00,
2013-01-18 19:19:00,23.9,-2.3,29.85,ESE,118,0.4,3.1,27,-99.99,,,-99.99,WSDL version 342,2013-01-19 00:19:00,
2013-01-18 19:24:00,23.9,-2.3,29.85,SE,141,0.4,2.2,27,0.00,,,0.00,WSDL version 342,2013-01-19 00:24:00,
2013-01-18 19:29:00,23.9,-2.3,29.83,SE,135,0.0,2.2,27,0.00,,,0.00,WSDL version 342,2013-01-19 00:29:00,
2013-01-18 19:34:00,23.9,-1.2,29.83,East,85,0.0,0.0,29,0.00,,,0.00,WSDL version 342,2013-01-19 00:34:00,
2013-01-18 19:39:00,23.9,-0.9,29.83,SE,139,0.0,0.0,29,0.00,,,0.00,WSDL version 342,2013-01-19 00:39:00,
2013-01-18 19:46:00,23.9,-0.9,29.83,SE,129,1.3,2.9,29,0.00,,,0.00,WSDL version 342,2013-01-19 00:46:00,
2013-01-18 19:52:00,23.9,-0.9,29.83,SE,131,1.0,3.6,29,0.00,,,0.00,WSDL version 342,2013-01-19 00:52:00,
2013-01-18 19:57:00,23.8,-1.0,29.80,SE,125,1.0,3.6,29,0.00,,,0.00,WSDL version 342,2013-01-19 00:57:00,
2013-01-18 20:02:00,23.7,-1.1,29.80,SE,141,1.7,2.7,29,0.00,,,0.00,WSDL version 342,2013-01-19 01:02:00,
2013-01-18 20:07:00,23.6,-1.2,29.80,ESE,109,2.3,3.8,29,0.00,,,0.00,WSDL version 342,2013-01-19 01:07:00,
2013-01-18 20:12:00,23.5,-1.2,29.80,SE,125,1.1,3.8,29,-99.99,,,-99.99,WSDL version 342,2013-01-19 01:12:00,
2013-01-18 20:17:00,23.5,-0.3,29.80,SSE,158,0.7,2.9,29,0.00,,,0.00,WSDL version 342,2013-01-19 01:17:00,
2013-01-18 20:22:00,23.4,0.5,29.80,South,183,0.6,2.9,32,0.00,,,0.00,WSDL version 342,2013-01-19 01:22:00,
2013-01-18 20:27:00,23.4,0.5,29.80,SE,141,1.4,2.9,32,0.00,,,0.00,WSDL version 342,2013-01-19 01:27:00,
2013-01-18 20:32:00,23.3,0.4,29.80,ESE,120,0.3,3.8,32,0.00,,,0.00,WSDL version 342,2013-01-19 01:32:00,
2013-01-18 20:37:00,23.3,0.4,29.80,ESE,119,2.8,5.8,32,0.00,,,0.00,WSDL version 342,2013-01-19 01:37:00,
2013-01-18 20:42:00,23.4,0.5,29.77,SSE,163,2.0,6.0,32,0.00,,,0.00,WSDL version 342,2013-01-19 01:42:00,
2013-01-18 20:47:00,23.5,0.6,29.77,South,180,2.6,6.0,32,0.00,,,0.00,WSDL version 342,2013-01-19 01:47:00,
2013-01-18 20:52:00,23.6,0.7,29.77,SSE,155,2.0,4.9,32,0.00,,,0.00,WSDL version 342,2013-01-19 01:52:00,
2013-01-18 20:57:00,23.7,0.8,29.77,SW,219,2.5,4.5,32,0.00,,,0.00,WSDL version 342,2013-01-19 01:57:00,
2013-01-18 21:02:00,23.7,0.8,29.77,SSE,154,1.8,5.6,32,0.00,,,0.00,WSDL version 342,2013-01-19 02:02:00,
2013-01-18 21:07:00,23.7,0.8,29.77,South,185,3.0,6.3,32,0.00,,,0.00,WSDL version 342,2013-01-19 02:07:00,
2013-01-18 21:12:00,23.8,0.8,29.77,SSE,163,2.3,7.4,32,0.00,,,0.00,WSDL version 342,2013-01-19 02:12:00,
2013-01-18 21:17:00,23.7,0.8,29.77,South,172,2.7,7.4,32,0.00,,,0.00,WSDL version 342,2013-01-19 02:17:00,
2013-01-18 21:22:00,23.7,0.8,29.77,South,177,0.0,4.3,32,0.00,,,0.00,WSDL version 342,2013-01-19 02:22:00,
2013-01-18 21:27:00,23.7,0.8,29.77,SW,219,1.2,5.8,32,0.00,,,0.00,WSDL version 342,2013-01-19 02:27:00,
2013-01-18 21:32:00,23.7,0.8,29.74,SW,215,2.2,5.8,32,0.00,,,0.00,WSDL version 342,2013-01-19 02:32:00,
2013-01-18 21:37:00,23.5,0.6,29.74,SSW,203,2.0,4.5,32,-99.99,,,-99.99,WSDL version 342,2013-01-19 02:37:00,
2013-01-18 21:42:00,23.5,0.6,29.74,SSE,148,1.4,4.0,32,0.00,,,0.00,WSDL version 342,2013-01-19 02:42:00,
2013-01-18 21:47:00,23.3,0.4,29.74,SW,221,1.7,4.3,32,0.00,,,0.00,WSDL version 342,2013-01-19 02:47:00,
2013-01-18 21:52:00,23.2,0.6,29.74,South,183,1.4,4.3,33,0.00,,,0.00,WSDL version 342,2013-01-19 02:52:00,
2013-01-18 21:58:00,23.2,0.9,29.74,SE,146,2.5,4.0,33,0.00,,,0.00,WSDL version 342,2013-01-19 02:58:00,
2013-01-18 22:03:00,23.3,1.0,29.74,SSE,158,2.8,4.3,33,0.00,,,0.00,WSDL version 342,2013-01-19 03:03:00,
2013-01-18 22:09:00,23.4,0.9,29.74,South,169,2.1,4.7,33,0.00,,,0.00,WSDL version 342,2013-01-19 03:09:00,
2013-01-18 22:14:00,23.2,0.9,29.74,South,170,1.8,4.7,33,0.00,,,0.00,WSDL version 342,2013-01-19 03:14:00,
2013-01-18 22:19:00,23.3,0.5,29.74,SSE,164,1.5,3.6,32,0.00,,,0.00,WSDL version 342,2013-01-19 03:19:00,
2013-01-18 22:24:00,23.2,0.3,29.74,SSE,165,0.7,3.4,32,0.00,,,0.00,WSDL version 342,2013-01-19 03:24:00,
2013-01-18 22:29:00,23.1,0.4,29.74,SE,132,1.2,3.4,33,0.00,,,0.00,WSDL version 342,2013-01-19 03:29:00,
2013-01-18 22:34:00,23.1,0.5,29.74,SSE,149,1.6,5.6,32,-99.99,,,-99.99,WSDL version 342,2013-01-19 03:34:00,
2013-01-18 22:39:00,23.2,0.3,29.74,SE,135,1.9,5.6,32,0.00,,,0.00,WSDL version 342,2013-01-19 03:39:00,
2013-01-18 22:44:00,23.2,0.3,29.74,East,101,1.9,3.4,32,0.00,,,0.00,WSDL version 342,2013-01-19 03:44:00,
2013-01-18 22:49:00,23.0,0.7,29.74,ESE,118,2.3,3.6,33,0.00,,,0.00,WSDL version 342,2013-01-19 03:49:00,
2013-01-18 22:54:00,23.0,0.7,29.74,ESE,120,2.6,3.6,33,0.00,,,0.00,WSDL version 342,2013-01-19 03:54:00,
2013-01-18 22:59:00,23.0,0.7,29.74,SSE,150,1.8,3.8,33,0.00,,,0.00,WSDL version 342,2013-01-19 03:59:00,
2013-01-18 23:04:00,23.0,0.7,29.74,SE,146,1.1,3.8,33,0.00,,,0.00,WSDL version 342,2013-01-19 04:04:00,
2013-01-18 23:09:00,23.0,0.8,29.74,SSE,148,3.1,4.9,33,0.00,,,0.00,WSDL version 342,2013-01-19 04:09:00,
2013-01-18 23:14:00,23.3,1.0,29.74,SE,146,3.0,4.9,33,0.00,,,0.00,WSDL version 342,2013-01-19 04:14:00,
2013-01-18 23:19:00,23.4,1.1,29.74,SE,132,3.5,5.6,33,0.00,,,0.00,WSDL version 342,2013-01-19 04:19:00,
2013-01-18 23:24:00,23.4,1.1,29.74,SSE,155,2.8,5.6,33,0.00,,,0.00,WSDL version 342,2013-01-19 04:24:00,
2013-01-18 23:29:00,23.4,1.1,29.74,SSE,158,3.0,5.6,33,0.00,,,0.00,WSDL version 342,2013-01-19 04:29:00,
2013-01-18 23:34:00,23.5,1.2,29.74,SSE,154,1.9,5.6,33,0.00,,,0.00,WSDL version 342,2013-01-19 04:34:00,
2013-01-18 23:39:00,23.6,0.9,29.74,SSE,164,3.3,6.0,32,0.00,,,0.00,WSDL version 342,2013-01-19 04:39:00,
2013-01-18 23:44:00,23.7,0.8,29.74,SE,135,3.5,6.0,32,0.00,,,0.00,WSDL version 342,2013-01-19 04:44:00,
2013-01-18 23:49:00,23.7,0.8,29.74,South,188,2.5,6.0,32,0.00,,,0.00,WSDL version 342,2013-01-19 04:49:00,
2013-01-18 23:54:00,23.7,1.0,29.74,SSE,154,2.5,4.0,33,0.00,,,0.00,WSDL version 342,2013-01-19 04:54:00,
2013-01-18 23:59:00,23.7,1.0,29.74,South,170,1.5,5.8,33,0.00,,,0.00,WSDL version 342,2013-01-19 04:59:00,